This demonstration page uses our WeatherBlox Daily Observations layout. Learn more.

Left ArrowRight Arrow

40.92945, -100.16068

Hourly Observations for November 8, 2021

Temp ( °F °C ) Dew Point ( °F °C ) Humidity (%) Winds ( mph kmh ) Pressure ( in mb ) Visibility ( mi km ) Precip ( " mm )
12:15 am 00:15 Clear 49 9.4 39 3.7 68 68 NNE 10 17 29.99 1015 10 16 0.00 0.00
12:35 am 00:35 Clear 49 9.6 38 3.6 66 66 NNE 10 17 29.99 1016 10 16 0.00 0.00
12:55 am 00:55 Clear 47 8.5 38 3.2 70 70 Calm 30.01 1016 10 16 0.00 0.00
1:15 am 01:15 Clear 45 7.3 37 2.8 73 73 NNW 5 7 30.03 1017 10 16 0.00 0.00
1:35 am 01:35 Clear 43 6.1 36 2.2 76 76 NNE 6 9 30.03 1017 10 16 0.00 0.00
1:55 am 01:55 Clear 43 6.3 37 2.5 77 77 NE 6 9 30.03 1017 10 16 0.00 0.00
2:15 am 02:15 Clear 45 7.1 37 3 75 75 NNE 10 17 30.01 1016 10 16 0.00 0.00
2:35 am 02:35 Clear 46 7.6 38 3.1 73 73 NNE 8 13 30.01 1016 10 16 0.00 0.00
2:55 am 02:55 Clear 46 8 37 3 71 71 N 8 13 30.01 1016 10 16 0.00 0.00
3:15 am 03:15 Clear 45 7.4 37 2.8 73 73 NNE 7 11 30.03 1017 10 16 0.00 0.00
3:35 am 03:35 Clear 45 7 37 2.8 75 75 NNE 12 19 30.03 1017 10 16 0.00 0.00
3:55 am 03:55 Clear 45 7 37 3 76 76 NNE 12 19 30.03 1017 10 16 0.00 0.00
4:15 am 04:15 Clear 44 6.8 38 3.1 78 78 NNE 14 22 30.03 1017 10 16 0.00 0.00
4:35 am 04:35 Clear 44 6.8 38 3.2 78 78 NNE 14 22 30.04 1017 10 16 0.00 0.00
4:55 am 04:55 Clear 44 6.7 38 3.3 79 79 NNE 13 20 30.04 1017 10 16 0.00 0.00
5:15 am 05:15 Clear 44 6.5 38 3.5 81 81 NNE 12 19 30.05 1018 10 16 0.00 0.00
5:35 am 05:35 Clear 43 6.1 38 3.3 82 82 NNE 13 20 30.07 1018 10 16 0.00 0.00
5:55 am 05:55 Clear 42 5.8 38 3.1 83 83 NNE 13 20 30.08 1019 10 16 0.00 0.00
6:15 am 06:15 Clear 42 5.8 37 3 82 82 NNE 14 22 30.08 1019 10 16 0.00 0.00
6:35 am 06:35 Clear 42 5.7 37 2.8 82 82 NNE 13 20 30.09 1019 10 16 0.00 0.00
6:55 am 06:55 Clear 42 5.5 37 2.5 81 81 NNE 12 19 30.11 1020 10 16 0.00 0.00
7:15 am 07:15 Clear 42 5.4 37 2.5 82 82 NNE 7 11 30.12 1020 10 16 0.00 0.00
7:35 am 07:35 Sunny 42 5.5 37 2.5 81 81 NNE 6 9 30.14 1021 10 16 0.00 0.00
7:55 am 07:55 Sunny 43 6.1 37 2.7 79 79 NNE 3 6 30.15 1021 10 16 0.00 0.00
8:15 am 08:15 Sunny 44 6.5 37 2.7 77 77 NE 5 7 30.15 1021 10 16 0.00 0.00
8:35 am 08:35 Sunny 45 7 37 2.8 75 75 NNE 6 9 30.16 1021 10 16 0.00 0.00
8:55 am 08:55 Sunny 45 7.4 37 2.8 73 73 NNE 3 6 30.18 1022 10 16 0.00 0.00
9:15 am 09:15 Sunny 47 8.3 37 2.6 68 68 NNE 15 24 30.19 1022 10 16 0.00 0.00
9:35 am 09:35 Sunny 48 9.1 36 2.3 63 63 NNE 18 30 30.18 1022 10 16 0.00 0.00
9:55 am 09:55 Sunny 49 9.2 36 2.2 62 62 NNE 16 26 30.19 1022 10 16 0.00 0.00
10:15 am 10:15 Sunny 51 10.5 37 2.6 58 58 NE 18 30 30.18 1022 10 16 0.00 0.00
10:35 am 10:35 Sunny 50 10.2 37 2.5 59 59 NE 18 30 30.18 1022 10 16 0.00 0.00
10:55 am 10:55 Sunny 50 9.8 36 2.3 60 60 NNE 21 33 30.18 1022 10 16 0.00 0.00
11:15 am 11:15 Sunny 51 10.7 37 2.8 58 58 NE 21 33 30.17 1022 10 16 0.00 0.00
11:35 am 11:35 Sunny 51 10.6 37 2.7 58 58 NE 20 31 30.17 1022 10 16 0.00 0.00
11:55 am 11:55 Sunny 53 11.8 38 3.2 56 56 NE 22 35 30.15 1021 10 16 0.00 0.00
12:15 pm 12:15 Sunny 55 13 39 3.7 54 54 NE 18 30 30.15 1021 10 16 0.00 0.00
12:35 pm 12:35 Sunny 54 12.2 38 3.1 54 54 NNE 18 30 30.16 1021 10 16 0.00 0.00
12:55 pm 12:55 Sunny 55 12.6 37 2.8 52 52 NNE 18 30 30.15 1021 10 16 0.00 0.00
1:15 pm 13:15 Sunny 54 12.4 37 2.5 51 51 NE 20 31 30.15 1021 10 16 0.00 0.00
1:35 pm 13:35 Sunny 55 12.5 36 2.1 49 49 NE 22 35 30.15 1021 10 16 0.00 0.00
1:55 pm 13:55 Sunny 55 12.6 36 2.2 49 49 NNE 18 30 30.14 1021 10 16 0.00 0.00
2:15 pm 14:15 Sunny 56 13.1 35 1.8 46 46 NE 20 31 30.13 1020 10 16 0.00 0.00
2:35 pm 14:35 Sunny 56 13.1 35 1.8 46 46 NE 16 26 30.13 1020 10 16 0.00 0.00
2:55 pm 14:55 Sunny 56 13.5 35 1.9 46 46 NE 16 26 30.13 1020 10 16 0.00 0.00
3:15 pm 15:15 Sunny 56 13.5 35 1.6 45 45 NE 17 28 30.13 1020 10 16 0.00 0.00
3:35 pm 15:35 Sunny 56 13.5 35 1.4 44 44 NE 20 31 30.13 1020 10 16 0.00 0.00
3:55 pm 15:55 Sunny 56 13.1 34 1.1 44 44 NE 17 28 30.14 1021 10 16 0.00 0.00
4:15 pm 16:15 Sunny 55 12.7 34 1.3 46 46 NNE 16 26 30.16 1021 10 16 0.00 0.00
4:35 pm 16:35 Sunny 54 12.1 34 1.3 48 48 NE 14 22 30.16 1021 10 16 0.00 0.00
4:55 pm 16:55 Sunny 52 11.1 35 1.5 52 52 NE 12 19 30.18 1022 10 16 0.00 0.00
5:15 pm 17:15 Sunny 51 10.6 34 1.2 53 53 NNE 10 17 30.19 1022 10 16 0.00 0.00
5:35 pm 17:35 Clear 49 9.7 33 0.7 54 54 NNE 9 15 30.20 1023 10 16 0.00 0.00
5:55 pm 17:55 Clear 48 8.8 32 0 54 54 NNE 9 15 30.22 1023 10 16 0.00 0.00
6:15 pm 18:15 Clear 47 8.2 31 -0.5 55 55 NNE 8 13 30.24 1024 10 16 0.00 0.00
6:35 pm 18:35 Clear 45 7.1 31 -0.5 59 59 NNE 6 9 30.26 1025 10 16 0.00 0.00
6:55 pm 18:55 Clear 44 6.6 31 -0.6 60 60 NNE 6 9 30.27 1025 10 16 0.00 0.00
7:15 pm 19:15 Clear 44 6.5 30 -0.9 60 60 NNE 6 9 30.27 1025 10 16 0.00 0.00
7:35 pm 19:35 Clear 42 5.7 31 -0.7 64 64 N 5 7 30.28 1025 10 16 0.00 0.00
8:15 pm 20:15 Clear 42 5.7 31 -0.8 63 63 NNE 6 9 30.29 1026 10 16 0.00 0.00
8:35 pm 20:35 Clear 41 5.2 31 -0.5 67 67 N 7 11 30.31 1026 10 16 0.00 0.00
8:55 pm 20:55 Clear 41 5.1 31 -0.3 68 68 NNE 7 11 30.31 1026 10 16 0.00 0.00
9:15 pm 21:15 Clear 43 6 31 -0.8 62 62 NNE 8 13 30.29 1026 10 16 0.00 0.00
9:35 pm 21:35 Clear 44 6.5 30 -1.2 58 58 NNE 8 13 30.29 1026 10 16 0.00 0.00
9:55 pm 21:55 Clear 44 6.5 29 -1.4 57 57 N 7 11 30.30 1026 10 16 0.00 0.00
10:15 pm 22:15 Clear 42 5.7 30 -1.3 61 61 NNE 8 13 30.31 1026 10 16 0.00 0.00
10:35 pm 22:35 Clear 40 4.2 29 -1.4 67 67 N 6 9 30.33 1027 10 16 0.00 0.00
10:55 pm 22:55 Clear 38 3.5 30 -1 73 73 N 5 7 30.33 1027 10 16 0.00 0.00
11:15 pm 23:15 Clear 39 3.8 30 -1 71 71 N 3 6 30.33 1027 10 16 0.00 0.00
11:35 pm 23:35 Clear 39 4.1 32 -0.2 74 74 NW 6 9 30.34 1027 10 16 0.00 0.00
11:55 pm 23:55 Clear 40 4.5 31 -0.3 71 71 Calm 30.33 1027 10 16 0.00 0.00

Powered by AerisWeather